Home > Weather > Starnberg > Past weeks

Flag for Germany Past Weather in Starnberg, Bavaria, Germany — Yesterday and Last 2 Weeks

Now
79 °F

Scattered clouds.


Feels Like: 80 °F
Forecast: 62 / 71 °F
Wind: 7 mph from Southwest

Location: Landsberg

Current Time: Aug 28, 2016 at 8:58:08 PM

Latest Report: Aug 28, 2016 at 8:20 PM


Visibility: N/A

Pressure: 30.07 "Hg (28.11 "Hg at 590m altitude)

Humidity: 51%

Dew Point: 59 °F

Location of StarnbergLocation

Past Weather in Starnberg — Graph

°F

Starnberg Temperature Yesterday

Maximum temperature yesterday: 84 °F (at 2:20 PM)
Minimum temperature yesterday: 59 °F (at 6:20 AM)
Average temperature yesterday: 72 °F

High & Low Weather Summary for the Past Weeks

 TemperatureHumidityPressure
High86 °F (Aug 26, 3:20 PM)94% (Aug 15, 5:20 AM)30.42 "Hg (Aug 15, 5:20 AM)
Low50 °F (Aug 23, 5:20 AM)33% (Aug 27, 2:20 PM)29.86 "Hg (Aug 18, 5:20 AM)
Average66 °F70%30.13 "Hg
* Reported Aug 13 7:20 PM — Aug 28 7:20 PM, Starnberg, Weather by CustomWeather, © 2016

Note: Actual official high and low records may vary slightly from our data, if they occured in-between our weather recording intervals... More about our weather records

Advertising

Starnberg Weather History for the Previous 24 Hours

Scroll right to see more
 ConditionsComfort  
Time TempWeatherWind HumidityBarometerVisibility
7:20 PM
Sun, Aug 28
82 °FPassing clouds.7 mph42%30.04 "HgN/A
6:20 PM84 °FPassing clouds.6 mph35%30.04 "HgN/A
5:20 PM86 °FPassing clouds.8 mph35%30.07 "HgN/A
4:20 PM84 °FPassing clouds.8 mph35%30.07 "HgN/A
3:20 PM86 °FPassing clouds.8 mph33%30.09 "HgN/A
2:20 PM84 °FPassing clouds.10 mph35%30.09 "HgN/A
1:20 PM82 °FPassing clouds.10 mph40%30.12 "HgN/A
12:20 PM81 °FScattered clouds.7 mph48%30.12 "HgN/A
11:20 AM77 °FScattered clouds.7 mph54%30.12 "HgN/A
10:20 AM75 °FScattered clouds.8 mph65%30.12 "HgN/A
9:20 AM73 °FScattered clouds.7 mph65%30.12 "HgN/A
8:20 AM70 °FThunderstorms. Partly sunny.13 mph73%30.09 "HgN/A
7:20 AM68 °FPassing clouds.9 mph78%30.09 "HgN/A
6:20 AM64 °FPartly cloudy.7 mph83%30.09 "HgN/A
5:20 AM61 °FPassing clouds.5 mph88%30.09 "HgN/A
4:20 AM63 °FPassing clouds.2 mph88%30.09 "HgN/A
3:20 AM61 °FPassing clouds.3 mph88%30.09 "HgN/A
2:20 AM61 °FPassing clouds.6 mph88%30.09 "HgN/A
1:20 AM64 °FPassing clouds.3 mph83%30.09 "HgN/A
12:20 AM64 °FPassing clouds.3 mph83%30.09 "HgN/A
11:20 PM
Sat, Aug 27
66 °FPassing clouds.2 mph78%30.09 "HgN/A
10:20 PM68 °FPassing clouds.2 mph73%30.09 "HgN/A
9:20 PM72 °FPassing clouds.3 mph61%30.09 "HgN/A
8:20 PM75 °FPassing clouds.3 mph47%30.09 "HgN/A
Weather by CustomWeather, © 2016

See weather overviewHow to use our weather pages